Time,TemperatureF,DewpointF,PressureIn,WindDirection,WindDirectionDegrees,WindSpeedMPH,WindSpeedGustMPH,Humidity,HourlyPrecipIn,Conditions,Clouds,dailyrainin,SoftwareType,DateUTC
2013-08-13 00:04:00,63.1,55.1,29.32,NNW,338,0.0,0.0,75,0.00,,---,0.00,VWS V13.01,2013-08-13 05:04:00,
2013-08-13 00:09:00,63.1,55.1,29.32,NNW,338,0.0,0.0,75,0.00,,---,0.00,VWS V13.01,2013-08-13 05:09:00,
2013-08-13 00:14:00,62.9,54.9,29.32,NNW,338,0.0,0.0,75,0.00,,---,0.00,VWS V13.01,2013-08-13 05:14:00,
2013-08-13 00:19:00,62.7,54.7,29.32,NNW,338,0.0,0.0,75,0.00,,---,0.00,VWS V13.01,2013-08-13 05:19:00,
2013-08-13 00:24:00,62.7,54.7,29.32,NNW,338,0.0,0.0,75,0.00,,---,0.00,VWS V13.01,2013-08-13 05:24:00,
2013-08-13 00:29:00,62.7,54.7,29.31,NNW,338,0.0,0.0,75,0.00,,---,0.00,VWS V13.01,2013-08-13 05:29:00,
2013-08-13 00:34:00,62.6,54.6,29.31,NNW,338,0.0,0.0,75,0.00,,---,0.00,VWS V13.01,2013-08-13 05:34:00,
2013-08-13 00:39:00,62.4,54.4,29.31,NNW,338,0.0,0.0,75,0.00,,---,0.00,VWS V13.01,2013-08-13 05:39:00,
2013-08-13 00:44:00,62.4,54.4,29.31,NNW,338,0.0,0.0,75,0.00,,---,0.00,VWS V13.01,2013-08-13 05:44:00,
2013-08-13 00:49:00,62.4,54.8,29.31,NNW,338,0.0,0.0,76,0.00,,---,0.00,VWS V13.01,2013-08-13 05:49:00,
2013-08-13 00:54:00,62.4,54.8,29.32,NNW,338,0.0,0.0,76,0.00,,---,0.00,VWS V13.01,2013-08-13 05:54:00,
2013-08-13 00:59:00,62.4,55.1,29.32,NNW,338,0.0,0.0,77,0.00,,---,0.00,VWS V13.01,2013-08-13 05:59:00,
2013-08-13 01:04:00,62.2,54.9,29.31,NNW,338,0.0,0.0,77,0.00,,---,0.00,VWS V13.01,2013-08-13 06:04:00,
2013-08-13 01:09:00,62.4,55.1,29.31,NNW,338,0.0,0.0,77,0.00,,---,0.00,VWS V13.01,2013-08-13 06:09:00,
2013-08-13 01:14:00,62.2,54.9,29.31,NNW,338,0.0,0.0,77,0.00,,---,0.00,VWS V13.01,2013-08-13 06:14:00,
2013-08-13 01:19:00,62.2,54.9,29.31,NNW,338,0.0,0.0,77,0.00,,---,0.00,VWS V13.01,2013-08-13 06:19:00,
2013-08-13 01:24:00,62.2,54.9,29.31,NNW,338,0.0,0.0,77,0.00,,---,0.00,VWS V13.01,2013-08-13 06:24:00,
2013-08-13 01:29:00,62.2,54.9,29.31,NNW,338,0.0,0.0,77,0.00,,---,0.00,VWS V13.01,2013-08-13 06:29:00,
2013-08-13 01:34:00,61.8,54.5,29.32,North,0,0.0,0.0,77,0.00,,---,0.00,VWS V13.01,2013-08-13 06:34:00,
2013-08-13 01:39:00,61.8,54.5,29.31,North,0,0.0,0.0,77,0.00,,---,0.00,VWS V13.01,2013-08-13 06:39:00,
2013-08-13 01:44:00,61.7,54.8,29.31,North,0,0.0,0.0,78,0.00,,---,0.00,VWS V13.01,2013-08-13 06:44:00,
2013-08-13 01:49:00,61.5,54.6,29.32,North,0,0.0,0.0,78,0.00,,---,0.00,VWS V13.01,2013-08-13 06:49:00,
2013-08-13 01:54:00,61.5,54.6,29.31,North,0,0.0,0.0,78,0.00,,---,0.00,VWS V13.01,2013-08-13 06:54:00,
2013-08-13 01:59:00,61.3,54.4,29.31,North,0,0.0,0.0,78,0.00,,---,0.00,VWS V13.01,2013-08-13 06:59:00,
2013-08-13 02:04:00,61.1,54.5,29.31,North,0,0.0,0.0,79,0.00,,---,0.00,VWS V13.01,2013-08-13 07:04:00,
2013-08-13 02:09:00,61.1,54.5,29.31,North,0,0.0,0.0,79,0.00,,---,0.00,VWS V13.01,2013-08-13 07:09:00,
2013-08-13 02:14:00,61.1,54.5,29.31,North,0,0.0,0.0,79,0.00,,---,0.00,VWS V13.01,2013-08-13 07:14:00,
2013-08-13 02:19:00,60.9,54.3,29.31,North,0,0.0,0.0,79,0.00,,---,0.00,VWS V13.01,2013-08-13 07:19:00,
2013-08-13 02:24:00,60.9,54.7,29.31,North,0,0.0,0.0,80,0.00,,---,0.00,VWS V13.01,2013-08-13 07:24:00,
2013-08-13 02:29:00,60.9,54.7,29.31,North,0,0.0,0.0,80,0.00,,---,0.00,VWS V13.01,2013-08-13 07:29:00,
2013-08-13 02:34:00,60.6,54.4,29.31,North,0,0.0,0.0,80,0.00,,---,0.00,VWS V13.01,2013-08-13 07:34:00,
2013-08-13 02:39:00,60.6,54.4,29.31,North,0,0.0,0.0,80,0.00,,---,0.00,VWS V13.01,2013-08-13 07:39:00,
2013-08-13 02:44:00,60.6,54.4,29.31,North,0,0.0,0.0,80,0.00,,---,0.00,VWS V13.01,2013-08-13 07:44:00,
2013-08-13 02:49:00,60.6,54.4,29.31,North,0,0.0,0.0,80,0.00,,---,0.00,VWS V13.01,2013-08-13 07:49:00,
2013-08-13 02:54:00,60.4,54.2,29.31,North,0,0.0,0.0,80,0.00,,---,0.00,VWS V13.01,2013-08-13 07:54:00,
2013-08-13 02:59:00,60.4,54.2,29.31,North,0,0.0,0.0,80,0.00,,---,0.00,VWS V13.01,2013-08-13 07:59:00,
2013-08-13 03:04:00,60.0,53.8,29.31,North,0,0.0,0.0,80,0.00,,---,0.00,VWS V13.01,2013-08-13 08:04:00,
2013-08-13 03:09:00,60.0,53.8,29.31,North,0,0.0,0.0,80,0.00,,---,0.00,VWS V13.01,2013-08-13 08:09:00,
2013-08-13 03:14:00,60.0,53.8,29.31,North,0,0.0,0.0,80,0.00,,---,0.00,VWS V13.01,2013-08-13 08:14:00,
2013-08-13 03:19:00,60.0,53.8,29.31,North,0,0.0,0.0,80,0.00,,---,0.00,VWS V13.01,2013-08-13 08:19:00,
2013-08-13 03:24:00,60.0,53.8,29.31,North,0,0.0,0.0,80,0.00,,---,0.00,VWS V13.01,2013-08-13 08:24:00,
2013-08-13 03:29:00,59.9,53.7,29.31,North,0,0.0,0.0,80,0.00,,---,0.00,VWS V13.01,2013-08-13 08:29:00,
2013-08-13 03:34:00,59.7,53.5,29.31,North,0,0.0,0.0,80,0.00,,---,0.00,VWS V13.01,2013-08-13 08:34:00,
2013-08-13 03:39:00,59.7,53.5,29.31,North,0,0.0,0.0,80,0.00,,---,0.00,VWS V13.01,2013-08-13 08:39:00,
2013-08-13 03:44:00,59.7,53.5,29.32,North,0,0.0,0.0,80,0.00,,---,0.00,VWS V13.01,2013-08-13 08:44:00,
2013-08-13 03:49:00,59.7,53.5,29.31,North,0,0.0,0.0,80,0.00,,---,0.00,VWS V13.01,2013-08-13 08:49:00,
2013-08-13 03:54:00,59.7,53.5,29.31,North,0,0.0,0.0,80,0.00,,---,0.00,VWS V13.01,2013-08-13 08:54:00,
2013-08-13 03:59:00,59.5,53.3,29.31,North,0,0.0,0.0,80,0.00,,---,0.00,VWS V13.01,2013-08-13 08:59:00,
2013-08-13 04:04:00,59.5,53.3,29.31,North,0,0.0,0.0,80,0.00,,---,0.00,VWS V13.01,2013-08-13 09:04:00,
2013-08-13 04:09:00,59.3,53.1,29.31,North,0,0.0,0.0,80,0.00,,---,0.00,VWS V13.01,2013-08-13 09:09:00,
2013-08-13 04:14:00,59.3,53.1,29.31,North,0,0.0,0.0,80,0.00,,---,0.00,VWS V13.01,2013-08-13 09:14:00,
2013-08-13 04:19:00,59.1,52.9,29.31,North,0,0.0,0.0,80,0.00,,---,0.00,VWS V13.01,2013-08-13 09:19:00,
2013-08-13 04:24:00,59.1,52.9,29.32,North,0,0.0,0.0,80,0.00,,---,0.00,VWS V13.01,2013-08-13 09:24:00,
2013-08-13 04:29:00,59.0,52.8,29.32,North,0,0.0,0.0,80,0.00,,---,0.00,VWS V13.01,2013-08-13 09:29:00,
2013-08-13 04:34:00,58.8,52.7,29.32,North,0,0.0,0.0,80,0.00,,---,0.00,VWS V13.01,2013-08-13 09:34:00,
2013-08-13 04:39:00,58.8,53.0,29.32,North,0,0.0,0.0,81,0.00,,---,0.00,VWS V13.01,2013-08-13 09:39:00,
2013-08-13 04:44:00,58.8,53.0,29.32,North,0,0.0,0.0,81,0.00,,---,0.00,VWS V13.01,2013-08-13 09:44:00,
2013-08-13 04:49:00,58.8,53.0,29.32,North,0,0.0,0.0,81,0.00,,---,0.00,VWS V13.01,2013-08-13 09:49:00,
2013-08-13 04:54:00,58.8,53.0,29.32,North,0,0.0,0.0,81,0.00,,---,0.00,VWS V13.01,2013-08-13 09:54:00,
2013-08-13 04:59:00,58.8,53.0,29.33,North,0,0.0,0.0,81,0.00,,---,0.00,VWS V13.01,2013-08-13 09:59:00,
2013-08-13 05:04:00,58.8,53.0,29.33,North,0,0.0,0.0,81,0.00,,---,0.00,VWS V13.01,2013-08-13 10:04:00,
2013-08-13 05:09:00,58.8,53.0,29.32,North,0,0.0,0.0,81,0.00,,---,0.00,VWS V13.01,2013-08-13 10:09:00,
2013-08-13 05:14:00,58.6,52.8,29.33,North,0,0.0,0.0,81,0.00,,---,0.00,VWS V13.01,2013-08-13 10:14:00,
2013-08-13 05:19:00,58.4,52.6,29.33,North,0,0.0,0.0,81,0.00,,---,0.00,VWS V13.01,2013-08-13 10:19:00,
2013-08-13 05:24:00,58.2,52.4,29.33,North,0,0.0,0.0,81,0.00,,---,0.00,VWS V13.01,2013-08-13 10:24:00,
2013-08-13 05:29:00,58.2,52.4,29.33,North,0,0.0,0.0,81,0.00,,---,0.00,VWS V13.01,2013-08-13 10:29:00,
2013-08-13 05:34:00,58.1,52.3,29.33,North,0,0.0,0.0,81,0.00,,---,0.00,VWS V13.01,2013-08-13 10:34:00,
2013-08-13 05:39:00,57.9,52.1,29.33,North,0,0.0,0.0,81,0.00,,---,0.00,VWS V13.01,2013-08-13 10:39:00,
2013-08-13 05:44:00,57.9,52.1,29.33,North,0,0.0,0.0,81,0.00,,---,0.00,VWS V13.01,2013-08-13 10:44:00,
2013-08-13 05:49:00,57.9,52.1,29.33,North,0,0.0,0.0,81,0.00,,---,0.00,VWS V13.01,2013-08-13 10:49:00,
2013-08-13 05:54:00,57.9,52.1,29.33,North,0,0.0,0.0,81,0.00,,---,0.00,VWS V13.01,2013-08-13 10:54:00,
2013-08-13 05:59:00,57.7,51.9,29.33,North,0,0.0,0.0,81,0.00,,---,0.00,VWS V13.01,2013-08-13 10:59:00,
2013-08-13 06:04:00,57.7,51.9,29.33,North,0,0.0,0.0,81,0.00,,---,0.00,VWS V13.01,2013-08-13 11:04:00,
2013-08-13 06:09:00,57.5,51.7,29.33,North,0,0.0,0.0,81,0.00,,---,0.00,VWS V13.01,2013-08-13 11:09:00,
2013-08-13 06:14:00,57.5,51.7,29.34,North,0,0.0,0.0,81,0.00,,---,0.00,VWS V13.01,2013-08-13 11:14:00,
2013-08-13 06:19:00,57.3,51.5,29.33,North,0,0.0,0.0,81,0.00,,---,0.00,VWS V13.01,2013-08-13 11:19:00,
2013-08-13 06:24:00,57.3,51.5,29.34,North,0,0.0,0.0,81,0.00,,---,0.00,VWS V13.01,2013-08-13 11:24:00,
2013-08-13 06:29:00,57.3,51.5,29.33,North,0,0.0,0.0,81,0.00,,---,0.00,VWS V13.01,2013-08-13 11:29:00,
2013-08-13 06:34:00,57.2,51.4,29.34,North,0,0.0,0.0,81,0.00,,---,0.00,VWS V13.01,2013-08-13 11:34:00,
2013-08-13 06:39:00,57.0,51.2,29.34,North,0,0.0,0.0,81,0.00,,---,0.00,VWS V13.01,2013-08-13 11:39:00,
2013-08-13 06:44:00,57.0,51.6,29.34,North,0,0.0,0.0,82,0.00,,---,0.00,VWS V13.01,2013-08-13 11:44:00,
2013-08-13 06:49:00,57.0,51.6,29.34,North,0,0.0,0.0,82,0.00,,---,0.00,VWS V13.01,2013-08-13 11:49:00,
2013-08-13 06:54:00,57.0,51.6,29.34,North,0,0.0,0.0,82,0.00,,---,0.00,VWS V13.01,2013-08-13 11:54:00,
2013-08-13 06:59:00,57.0,51.6,29.34,North,0,0.0,0.0,82,0.00,,---,0.00,VWS V13.01,2013-08-13 11:59:00,
2013-08-13 07:04:00,57.0,51.6,29.34,North,0,0.0,0.0,82,0.00,,---,0.00,VWS V13.01,2013-08-13 12:04:00,
2013-08-13 07:09:00,57.0,51.2,29.35,North,0,0.0,0.0,81,0.00,,---,0.00,VWS V13.01,2013-08-13 12:09:00,
2013-08-13 07:14:00,57.0,51.2,29.36,North,0,0.0,0.0,81,0.00,,---,0.00,VWS V13.01,2013-08-13 12:14:00,
2013-08-13 07:19:00,57.0,51.6,29.36,North,0,0.0,0.0,82,0.00,,---,0.00,VWS V13.01,2013-08-13 12:19:00,
2013-08-13 07:24:00,57.0,51.6,29.36,North,0,0.0,0.0,82,0.00,,---,0.00,VWS V13.01,2013-08-13 12:24:00,
2013-08-13 07:29:00,57.0,51.2,29.36,North,0,0.0,0.0,81,0.00,,---,0.00,VWS V13.01,2013-08-13 12:29:00,
2013-08-13 07:34:00,57.3,51.5,29.35,North,0,0.0,0.0,81,0.00,,---,0.00,VWS V13.01,2013-08-13 12:34:00,
2013-08-13 07:39:00,57.3,51.5,29.35,North,0,0.0,0.0,81,0.00,,---,0.00,VWS V13.01,2013-08-13 12:39:00,
2013-08-13 07:44:00,57.5,51.7,29.36,North,0,0.0,0.0,81,0.00,,---,0.00,VWS V13.01,2013-08-13 12:44:00,
2013-08-13 07:49:00,57.5,51.7,29.36,North,0,0.0,0.0,81,0.00,,---,0.00,VWS V13.01,2013-08-13 12:49:00,
2013-08-13 07:54:00,57.7,51.9,29.36,North,0,0.0,0.0,81,0.00,,---,0.00,VWS V13.01,2013-08-13 12:54:00,
2013-08-13 07:59:00,57.7,51.9,29.36,North,0,0.0,0.0,81,0.00,,---,0.00,VWS V13.01,2013-08-13 12:59:00,
2013-08-13 08:04:00,57.9,52.1,29.36,North,0,0.0,0.0,81,0.00,,---,0.00,VWS V13.01,2013-08-13 13:04:00,
2013-08-13 08:10:00,58.2,52.1,29.36,North,0,0.0,0.0,80,0.00,,---,0.00,VWS V13.01,2013-08-13 13:10:00,
2013-08-13 08:15:00,58.2,52.1,29.36,North,0,0.0,0.0,80,0.00,,---,0.00,VWS V13.01,2013-08-13 13:15:00,
2013-08-13 08:20:00,58.4,52.3,29.36,North,0,0.0,0.0,80,0.00,,---,0.00,VWS V13.01,2013-08-13 13:20:00,
2013-08-13 08:26:00,58.8,52.7,29.36,North,0,0.0,0.0,80,0.00,,---,0.00,VWS V13.01,2013-08-13 13:26:00,
2013-08-13 08:31:00,58.8,52.7,29.37,North,0,0.0,0.0,80,0.00,,---,0.00,VWS V13.01,2013-08-13 13:31:00,
2013-08-13 08:36:00,58.8,52.7,29.36,North,0,0.0,0.0,80,0.00,,---,0.00,VWS V13.01,2013-08-13 13:36:00,
2013-08-13 08:41:00,59.1,52.6,29.37,North,0,0.0,0.0,79,0.00,,---,0.00,VWS V13.01,2013-08-13 13:41:00,
2013-08-13 08:46:00,59.5,53.0,29.37,North,0,0.0,0.0,79,0.00,,---,0.00,VWS V13.01,2013-08-13 13:46:00,
2013-08-13 08:51:00,59.7,52.8,29.38,North,0,0.0,0.0,78,0.00,,---,0.00,VWS V13.01,2013-08-13 13:51:00,
2013-08-13 08:56:00,59.9,53.0,29.37,North,0,0.0,0.0,78,0.00,,---,0.00,VWS V13.01,2013-08-13 13:56:00,
2013-08-13 09:01:00,60.0,53.1,29.37,North,0,0.0,0.0,78,0.00,,---,0.00,VWS V13.01,2013-08-13 14:01:00,
2013-08-13 09:06:00,60.4,53.2,29.37,North,0,0.0,0.0,77,0.00,,---,0.00,VWS V13.01,2013-08-13 14:06:00,
2013-08-13 09:11:00,60.6,53.0,29.38,North,0,0.0,0.0,76,0.00,,---,0.00,VWS V13.01,2013-08-13 14:11:00,
2013-08-13 09:16:00,60.8,53.2,29.38,North,0,0.0,0.0,76,0.00,,---,0.00,VWS V13.01,2013-08-13 14:16:00,
2013-08-13 09:21:00,61.1,53.1,29.38,North,0,0.0,0.0,75,0.00,,---,0.00,VWS V13.01,2013-08-13 14:21:00,
2013-08-13 09:26:00,61.3,53.0,29.38,North,0,0.0,0.0,74,0.00,,---,0.00,VWS V13.01,2013-08-13 14:26:00,
2013-08-13 09:31:00,61.5,53.2,29.38,North,0,0.0,0.0,74,0.00,,---,0.00,VWS V13.01,2013-08-13 14:31:00,
2013-08-13 09:36:00,61.7,53.0,29.38,NE,45,0.0,0.0,73,0.00,,---,0.00,VWS V13.01,2013-08-13 14:36:00,
2013-08-13 09:41:00,61.8,53.1,29.38,NE,45,0.0,0.0,73,0.00,,---,0.00,VWS V13.01,2013-08-13 14:41:00,
2013-08-13 09:46:00,62.2,53.5,29.38,NE,45,0.0,0.0,73,0.00,,---,0.00,VWS V13.01,2013-08-13 14:46:00,
2013-08-13 09:51:00,62.4,53.3,29.38,NE,45,0.0,0.0,72,0.00,,---,0.00,VWS V13.01,2013-08-13 14:51:00,
2013-08-13 09:56:00,62.7,53.2,29.39,ENE,68,0.0,0.0,71,0.00,,---,0.00,VWS V13.01,2013-08-13 14:56:00,
2013-08-13 10:01:00,62.7,52.4,29.39,ENE,68,0.0,0.0,69,0.00,,---,0.00,VWS V13.01,2013-08-13 15:01:00,
2013-08-13 10:06:00,63.1,52.8,29.39,ENE,68,0.0,0.0,69,0.00,,---,0.00,VWS V13.01,2013-08-13 15:06:00,
2013-08-13 10:11:00,63.3,53.0,29.39,ENE,68,0.0,0.0,69,0.00,,---,0.00,VWS V13.01,2013-08-13 15:11:00,
2013-08-13 10:16:00,63.5,52.8,29.39,ENE,68,0.0,0.0,68,0.00,,---,0.00,VWS V13.01,2013-08-13 15:16:00,
2013-08-13 10:21:00,63.6,52.9,29.39,ENE,68,0.0,0.0,68,0.00,,---,0.00,VWS V13.01,2013-08-13 15:21:00,
2013-08-13 10:26:00,64.0,53.2,29.40,ENE,68,0.0,0.0,68,0.00,,---,0.00,VWS V13.01,2013-08-13 15:26:00,
2013-08-13 10:31:00,64.2,53.4,29.40,ENE,68,0.0,0.0,68,0.00,,---,0.00,VWS V13.01,2013-08-13 15:31:00,
2013-08-13 10:36:00,64.2,53.4,29.40,ENE,68,0.0,0.0,68,0.00,,---,0.00,VWS V13.01,2013-08-13 15:36:00,
2013-08-13 10:41:00,64.5,53.3,29.40,ENE,68,0.0,0.0,67,0.00,,---,0.00,VWS V13.01,2013-08-13 15:41:00,
2013-08-13 10:46:00,64.7,53.1,29.41,NNE,22,0.0,0.0,66,0.00,,---,0.00,VWS V13.01,2013-08-13 15:46:00,
2013-08-13 10:51:00,65.1,52.2,29.41,NNE,22,0.0,0.0,63,0.00,,---,0.00,VWS V13.01,2013-08-13 15:51:00,
2013-08-13 10:56:00,65.1,51.8,29.41,NNE,22,0.0,0.0,62,0.00,,---,0.00,VWS V13.01,2013-08-13 15:56:00,
2013-08-13 11:01:00,65.4,51.6,29.41,NNE,22,0.0,0.0,61,0.00,,---,0.00,VWS V13.01,2013-08-13 16:01:00,
2013-08-13 11:06:00,65.8,51.5,29.41,North,0,0.0,0.0,60,0.00,,---,0.00,VWS V13.01,2013-08-13 16:06:00,
2013-08-13 11:11:00,65.8,51.5,29.41,North,0,0.0,0.0,60,0.00,,---,0.00,VWS V13.01,2013-08-13 16:11:00,
2013-08-13 11:16:00,66.0,52.2,29.41,North,0,0.0,0.0,61,0.00,,---,0.00,VWS V13.01,2013-08-13 16:16:00,
2013-08-13 11:21:00,66.3,52.0,29.42,North,0,15.6,15.6,60,0.00,,---,0.00,VWS V13.01,2013-08-13 16:21:00,
2013-08-13 11:26:00,66.5,52.2,29.42,North,0,0.0,0.0,60,0.00,,---,0.00,VWS V13.01,2013-08-13 16:26:00,
2013-08-13 11:31:00,66.7,51.9,29.42,North,0,0.0,0.0,59,0.00,,---,0.00,VWS V13.01,2013-08-13 16:31:00,
2013-08-13 11:36:00,66.9,52.6,29.41,NNE,22,0.0,0.0,60,0.00,,---,0.00,VWS V13.01,2013-08-13 16:36:00,
2013-08-13 11:41:00,67.2,52.9,29.41,NNE,22,0.0,0.0,60,0.00,,---,0.00,VWS V13.01,2013-08-13 16:41:00,
2013-08-13 11:46:00,67.6,52.8,29.41,NNE,22,0.0,0.0,59,0.00,,---,0.00,VWS V13.01,2013-08-13 16:46:00,
2013-08-13 11:51:00,68.1,52.3,29.41,NNE,22,0.0,0.0,57,0.00,,---,0.00,VWS V13.01,2013-08-13 16:51:00,
2013-08-13 11:56:00,68.3,52.0,29.41,NNE,22,0.0,0.0,56,0.00,,---,0.00,VWS V13.01,2013-08-13 16:56:00,
2013-08-13 12:01:00,68.7,52.4,29.41,NNE,22,0.0,0.0,56,0.00,,---,0.00,VWS V13.01,2013-08-13 17:01:00,
2013-08-13 12:06:00,69.2,51.9,29.41,North,0,0.0,0.0,54,0.00,,---,0.00,VWS V13.01,2013-08-13 17:06:00,
2013-08-13 12:12:00,69.6,51.7,29.41,North,0,0.0,0.0,53,0.00,,---,0.00,VWS V13.01,2013-08-13 17:12:00,
2013-08-13 12:18:00,69.6,51.2,29.41,North,0,4.4,4.4,52,0.00,,---,0.00,VWS V13.01,2013-08-13 17:18:00,
2013-08-13 12:23:00,69.9,52.5,29.41,North,0,0.0,0.0,54,0.00,,---,0.00,VWS V13.01,2013-08-13 17:23:00,
2013-08-13 12:28:00,70.3,52.4,29.41,North,0,0.0,0.0,53,0.00,,---,0.00,VWS V13.01,2013-08-13 17:28:00,
2013-08-13 12:33:00,70.7,52.8,29.41,North,0,0.0,0.0,53,0.00,,---,0.00,VWS V13.01,2013-08-13 17:33:00,
2013-08-13 12:38:00,71.4,53.4,29.41,NNE,22,0.0,0.0,53,0.00,,---,0.00,VWS V13.01,2013-08-13 17:38:00,
2013-08-13 12:43:00,71.7,52.6,29.41,NNE,22,0.0,0.0,51,0.00,,---,0.00,VWS V13.01,2013-08-13 17:43:00,
2013-08-13 12:48:00,71.7,51.5,29.41,NNE,22,0.0,0.0,49,0.00,,---,0.00,VWS V13.01,2013-08-13 17:48:00,
2013-08-13 12:53:00,71.9,52.3,29.41,NNE,22,0.0,0.0,50,0.00,,---,0.00,VWS V13.01,2013-08-13 17:53:00,
2013-08-13 12:58:00,72.1,52.5,29.41,NNE,22,0.0,0.0,50,0.00,,---,0.00,VWS V13.01,2013-08-13 17:58:00,
2013-08-13 13:03:00,72.5,52.3,29.41,NNE,22,0.0,0.0,49,0.00,,---,0.00,VWS V13.01,2013-08-13 18:03:00,
2013-08-13 13:08:00,72.5,51.7,29.41,NNE,22,0.0,0.0,48,0.00,,---,0.00,VWS V13.01,2013-08-13 18:08:00,
2013-08-13 13:13:00,72.3,51.5,29.41,North,0,0.0,0.0,48,0.00,,---,0.00,VWS V13.01,2013-08-13 18:13:00,
2013-08-13 13:18:00,72.1,50.8,29.41,North,0,0.0,0.0,47,0.00,,---,0.00,VWS V13.01,2013-08-13 18:18:00,
2013-08-13 13:23:00,71.9,50.6,29.41,North,0,0.0,0.0,47,0.00,,---,0.00,VWS V13.01,2013-08-13 18:23:00,
2013-08-13 13:28:00,71.9,50.6,29.41,NNW,338,0.0,0.0,47,0.00,,---,0.00,VWS V13.01,2013-08-13 18:28:00,
2013-08-13 13:33:00,72.1,51.3,29.41,North,0,0.0,0.0,48,0.00,,---,0.00,VWS V13.01,2013-08-13 18:33:00,
2013-08-13 13:38:00,72.1,51.3,29.41,North,0,0.0,0.0,48,0.00,,---,0.00,VWS V13.01,2013-08-13 18:38:00,
2013-08-13 13:43:00,72.5,51.7,29.41,NNW,338,0.0,0.0,48,0.00,,---,0.00,VWS V13.01,2013-08-13 18:43:00,
2013-08-13 13:48:00,73.0,52.7,29.41,NNW,338,0.0,0.0,49,0.00,,---,0.00,VWS V13.01,2013-08-13 18:48:00,
2013-08-13 13:53:00,73.0,51.6,29.41,NNW,338,0.0,0.0,47,0.00,,---,0.00,VWS V13.01,2013-08-13 18:53:00,
2013-08-13 13:58:00,73.0,52.2,29.41,NNW,338,0.0,0.0,48,0.00,,---,0.00,VWS V13.01,2013-08-13 18:58:00,
2013-08-13 14:03:00,73.2,51.8,29.40,NE,45,0.0,0.0,47,0.00,,---,0.00,VWS V13.01,2013-08-13 19:03:00,
2013-08-13 14:08:00,72.5,51.2,29.40,North,0,0.0,0.0,47,0.00,,---,0.00,VWS V13.01,2013-08-13 19:08:00,
2013-08-13 14:13:00,72.5,51.2,29.41,NNW,338,0.0,0.0,47,0.00,,---,0.00,VWS V13.01,2013-08-13 19:13:00,
2013-08-13 14:18:00,72.5,50.6,29.41,NNW,338,0.0,0.0,46,0.00,,---,0.00,VWS V13.01,2013-08-13 19:18:00,
2013-08-13 14:23:00,72.8,50.8,29.40,NNW,338,5.2,5.2,46,0.00,,---,0.00,VWS V13.01,2013-08-13 19:23:00,
2013-08-13 14:28:00,73.0,51.6,29.40,NNW,338,0.0,0.0,47,0.00,,---,0.00,VWS V13.01,2013-08-13 19:28:00,
2013-08-13 14:33:00,73.5,52.1,29.40,NNW,338,0.0,0.0,47,0.00,,---,0.00,VWS V13.01,2013-08-13 19:33:00,
2013-08-13 14:38:00,73.5,51.5,29.41,North,0,0.0,6.6,46,0.00,,---,0.00,VWS V13.01,2013-08-13 19:38:00,
2013-08-13 14:43:00,73.7,51.7,29.41,North,0,0.0,0.0,46,0.00,,---,0.00,VWS V13.01,2013-08-13 19:43:00,
2013-08-13 14:48:00,73.9,51.2,29.41,North,0,0.0,0.0,45,0.00,,---,0.00,VWS V13.01,2013-08-13 19:48:00,
2013-08-13 14:53:00,74.1,52.0,29.41,NNW,338,0.0,0.0,46,0.00,,---,0.00,VWS V13.01,2013-08-13 19:53:00,
2013-08-13 14:58:00,74.1,50.8,29.40,NNW,338,0.0,0.0,44,0.00,,---,0.00,VWS V13.01,2013-08-13 19:58:00,
2013-08-13 15:03:00,73.5,50.9,29.40,North,0,0.0,35.6,45,0.00,,---,0.00,VWS V13.01,2013-08-13 20:03:00,
2013-08-13 15:08:00,73.2,50.0,29.40,NNW,338,0.0,14.2,44,0.00,,---,0.00,VWS V13.01,2013-08-13 20:08:00,
2013-08-13 15:13:00,73.0,50.4,29.40,NNW,338,0.0,0.0,45,0.00,,---,0.00,VWS V13.01,2013-08-13 20:13:00,
2013-08-13 15:18:00,72.6,49.5,29.40,NNE,22,0.0,11.6,44,0.00,,---,0.00,VWS V13.01,2013-08-13 20:18:00,
2013-08-13 15:23:00,72.5,48.8,29.39,NNW,338,0.0,12.8,43,0.00,,---,0.00,VWS V13.01,2013-08-13 20:23:00,
2013-08-13 15:28:00,72.8,50.2,29.39,North,0,0.0,0.0,45,0.00,,---,0.00,VWS V13.01,2013-08-13 20:28:00,
2013-08-13 15:33:00,73.4,50.8,29.40,North,0,0.0,0.0,45,0.00,,---,0.00,VWS V13.01,2013-08-13 20:33:00,
2013-08-13 15:38:00,73.5,50.9,29.40,North,0,0.0,0.0,45,0.00,,---,0.00,VWS V13.01,2013-08-13 20:38:00,
2013-08-13 15:43:00,73.5,50.9,29.40,North,0,0.0,0.0,45,0.00,,---,0.00,VWS V13.01,2013-08-13 20:43:00,
2013-08-13 15:48:00,73.5,49.7,29.39,North,0,0.0,0.0,43,0.00,,---,0.00,VWS V13.01,2013-08-13 20:48:00,
2013-08-13 15:53:00,73.5,49.7,29.39,North,0,0.0,24.6,43,0.00,,---,0.00,VWS V13.01,2013-08-13 20:53:00,
2013-08-13 15:58:00,73.5,50.3,29.39,North,0,0.0,0.0,44,0.00,,---,0.00,VWS V13.01,2013-08-13 20:58:00,
2013-08-13 16:03:00,73.2,50.6,29.40,North,0,0.0,0.0,45,0.00,,---,0.00,VWS V13.01,2013-08-13 21:03:00,
2013-08-13 16:08:00,73.0,49.8,29.39,NNE,22,0.0,0.0,44,0.00,,---,0.00,VWS V13.01,2013-08-13 21:08:00,
2013-08-13 16:13:00,72.5,49.4,29.39,North,0,0.0,0.0,44,0.00,,---,0.00,VWS V13.01,2013-08-13 21:13:00,
2013-08-13 16:18:00,72.1,48.4,29.39,NNW,338,14.6,14.6,43,0.00,,---,0.00,VWS V13.01,2013-08-13 21:18:00,
2013-08-13 16:23:00,71.9,49.4,29.39,North,0,0.0,0.0,45,0.00,,---,0.00,VWS V13.01,2013-08-13 21:23:00,
2013-08-13 16:28:00,71.9,49.4,29.39,NNW,338,13.4,13.4,45,0.00,,---,0.00,VWS V13.01,2013-08-13 21:28:00,
2013-08-13 16:33:00,71.7,49.8,29.39,North,0,0.0,0.0,46,0.00,,---,0.00,VWS V13.01,2013-08-13 21:33:00,
2013-08-13 16:38:00,71.7,49.2,29.39,North,0,0.0,0.0,45,0.00,,---,0.00,VWS V13.01,2013-08-13 21:38:00,
2013-08-13 16:43:00,71.4,48.4,29.39,North,0,0.0,0.0,44,0.00,,---,0.00,VWS V13.01,2013-08-13 21:43:00,
2013-08-13 16:48:00,71.4,49.0,29.39,North,0,0.0,4.0,45,0.00,,---,0.00,VWS V13.01,2013-08-13 21:48:00,
2013-08-13 16:53:00,71.2,48.8,29.39,North,0,0.0,0.0,45,0.00,,---,0.00,VWS V13.01,2013-08-13 21:53:00,
2013-08-13 16:58:00,71.0,49.2,29.39,North,0,0.0,0.0,46,0.00,,---,0.00,VWS V13.01,2013-08-13 21:58:00,
2013-08-13 17:03:00,70.8,49.0,29.39,North,0,0.0,0.0,46,0.00,,---,0.00,VWS V13.01,2013-08-13 22:03:00,
2013-08-13 17:08:00,70.8,48.4,29.39,North,0,0.0,0.0,45,0.00,,---,0.00,VWS V13.01,2013-08-13 22:08:00,
2013-08-13 17:13:00,71.0,48.6,29.39,North,0,0.0,0.0,45,0.00,,---,0.00,VWS V13.01,2013-08-13 22:13:00,
2013-08-13 17:18:00,70.8,49.0,29.39,North,0,0.0,0.0,46,0.00,,---,0.00,VWS V13.01,2013-08-13 22:18:00,
2013-08-13 17:23:00,70.7,49.5,29.39,North,0,0.0,0.0,47,0.00,,---,0.00,VWS V13.01,2013-08-13 22:23:00,
2013-08-13 17:28:00,70.7,49.5,29.39,North,0,0.0,0.0,47,0.00,,---,0.00,VWS V13.01,2013-08-13 22:28:00,
2013-08-13 17:33:00,70.3,49.7,29.39,North,0,0.0,0.0,48,0.00,,---,0.00,VWS V13.01,2013-08-13 22:33:00,
2013-08-13 17:38:00,70.1,49.5,29.39,North,0,0.0,0.0,48,0.00,,---,0.00,VWS V13.01,2013-08-13 22:38:00,
2013-08-13 17:43:00,69.9,49.9,29.39,North,0,0.0,0.0,49,0.00,,---,0.00,VWS V13.01,2013-08-13 22:43:00,
2013-08-13 17:48:00,69.9,48.8,29.39,North,0,0.0,0.0,47,0.00,,---,0.00,VWS V13.01,2013-08-13 22:48:00,
2013-08-13 17:53:00,69.9,48.8,29.38,North,0,0.0,0.0,47,0.00,,---,0.00,VWS V13.01,2013-08-13 22:53:00,
2013-08-13 17:58:00,69.8,49.2,29.38,North,0,0.0,0.0,48,0.00,,---,0.00,VWS V13.01,2013-08-13 22:58:00,
2013-08-13 18:03:00,69.6,49.1,29.38,North,0,0.0,0.0,48,0.00,,---,0.00,VWS V13.01,2013-08-13 23:03:00,
2013-08-13 18:08:00,69.6,48.5,29.38,North,0,0.0,0.0,47,0.00,,---,0.00,VWS V13.01,2013-08-13 23:08:00,
2013-08-13 18:13:00,69.6,48.5,29.38,North,0,0.0,0.0,47,0.00,,---,0.00,VWS V13.01,2013-08-13 23:13:00,
2013-08-13 18:18:00,69.6,49.1,29.38,North,0,0.0,0.0,48,0.00,,---,0.00,VWS V13.01,2013-08-13 23:18:00,
2013-08-13 18:23:00,69.6,49.1,29.38,North,0,0.0,0.0,48,0.00,,---,0.00,VWS V13.01,2013-08-13 23:23:00,
2013-08-13 18:28:00,69.6,49.1,29.38,North,0,0.0,0.0,48,0.00,,---,0.00,VWS V13.01,2013-08-13 23:28:00,
2013-08-13 18:33:00,69.6,49.1,29.38,North,0,0.0,0.0,48,0.00,,---,0.00,VWS V13.01,2013-08-13 23:33:00,
2013-08-13 18:38:00,69.6,48.5,29.38,North,0,0.0,0.0,47,0.00,,---,0.00,VWS V13.01,2013-08-13 23:38:00,
2013-08-13 18:43:00,69.6,49.1,29.38,North,0,0.0,0.0,48,0.00,,---,0.00,VWS V13.01,2013-08-13 23:43:00,
2013-08-13 18:48:00,69.9,49.9,29.38,North,0,0.0,0.0,49,0.00,,---,0.00,VWS V13.01,2013-08-13 23:48:00,
2013-08-13 18:53:00,70.1,50.1,29.38,North,0,0.0,0.0,49,0.00,,---,0.00,VWS V13.01,2013-08-13 23:53:00,
2013-08-13 18:59:00,69.9,49.9,29.38,North,0,0.0,0.0,49,0.00,,---,0.00,VWS V13.01,2013-08-13 23:59:00,
2013-08-13 19:04:00,69.9,49.9,29.38,North,0,0.0,0.0,49,0.00,,---,0.00,VWS V13.01,2013-08-14 00:04:00,
2013-08-13 19:09:00,69.6,49.6,29.38,North,0,0.0,0.0,49,0.00,,---,0.00,VWS V13.01,2013-08-14 00:09:00,
2013-08-13 19:14:00,69.4,48.9,29.38,North,0,0.0,0.0,48,0.00,,---,0.00,VWS V13.01,2013-08-14 00:14:00,
2013-08-13 19:19:00,69.4,49.4,29.38,North,0,0.0,0.0,49,0.00,,---,0.00,VWS V13.01,2013-08-14 00:19:00,
2013-08-13 19:24:00,69.4,49.4,29.38,North,0,0.0,0.0,49,0.00,,---,0.00,VWS V13.01,2013-08-14 00:24:00,
2013-08-13 19:29:00,69.0,49.6,29.38,North,0,0.0,0.0,50,0.00,,---,0.00,VWS V13.01,2013-08-14 00:29:00,
2013-08-13 19:35:00,68.9,49.5,29.38,North,0,0.0,0.0,50,0.00,,---,0.00,VWS V13.01,2013-08-14 00:35:00,
2013-08-13 19:40:00,68.9,49.5,29.38,North,0,0.0,0.0,50,0.00,,---,0.00,VWS V13.01,2013-08-14 00:40:00,
2013-08-13 19:45:00,68.7,49.3,29.38,North,0,0.0,0.0,50,0.00,,---,0.00,VWS V13.01,2013-08-14 00:45:00,
2013-08-13 19:50:00,68.5,49.7,29.38,North,0,0.0,0.0,51,0.00,,---,0.00,VWS V13.01,2013-08-14 00:50:00,
2013-08-13 19:55:00,68.5,50.2,29.38,North,0,0.0,0.0,52,0.00,,---,0.00,VWS V13.01,2013-08-14 00:55:00,
2013-08-13 20:00:00,68.5,50.2,29.38,North,0,0.0,0.0,52,0.00,,---,0.00,VWS V13.01,2013-08-14 01:00:00,
2013-08-13 20:05:00,68.3,50.0,29.38,North,0,0.0,0.0,52,0.00,,---,0.00,VWS V13.01,2013-08-14 01:05:00,
2013-08-13 20:10:00,68.1,50.3,29.38,North,0,0.0,0.0,53,0.00,,---,0.00,VWS V13.01,2013-08-14 01:10:00,
2013-08-13 20:15:00,67.8,50.1,29.38,North,0,0.0,0.0,53,0.00,,---,0.00,VWS V13.01,2013-08-14 01:15:00,
2013-08-13 20:20:00,67.6,49.9,29.38,North,0,0.0,0.0,53,0.00,,---,0.00,VWS V13.01,2013-08-14 01:20:00,
2013-08-13 20:25:00,67.2,49.5,29.38,North,0,0.0,0.0,53,0.00,,---,0.00,VWS V13.01,2013-08-14 01:25:00,
2013-08-13 20:30:00,66.9,49.7,29.38,North,0,0.0,0.0,54,0.00,,---,0.00,VWS V13.01,2013-08-14 01:30:00,
2013-08-13 20:35:00,66.7,49.5,29.39,North,0,0.0,0.0,54,0.00,,---,0.00,VWS V13.01,2013-08-14 01:35:00,
2013-08-13 20:40:00,66.3,49.2,29.39,North,0,0.0,0.0,54,0.00,,---,0.00,VWS V13.01,2013-08-14 01:40:00,
2013-08-13 20:45:00,66.2,49.6,29.38,North,0,0.0,0.0,55,0.00,,---,0.00,VWS V13.01,2013-08-14 01:45:00,
2013-08-13 20:50:00,65.8,49.2,29.38,North,0,0.0,0.0,55,0.00,,---,0.00,VWS V13.01,2013-08-14 01:50:00,
2013-08-13 20:55:00,65.4,49.3,29.38,North,0,0.0,0.0,56,0.00,,---,0.00,VWS V13.01,2013-08-14 01:55:00,
2013-08-13 21:00:00,65.3,49.2,29.39,North,0,0.0,0.0,56,0.00,,---,0.00,VWS V13.01,2013-08-14 02:00:00,
2013-08-13 21:05:00,65.1,49.0,29.39,North,0,0.0,0.0,56,0.00,,---,0.00,VWS V13.01,2013-08-14 02:05:00,
2013-08-13 21:10:00,64.9,49.3,29.39,North,0,0.0,0.0,57,0.00,,---,0.00,VWS V13.01,2013-08-14 02:10:00,
2013-08-13 21:15:00,64.7,49.1,29.39,North,0,0.0,0.0,57,0.00,,---,0.00,VWS V13.01,2013-08-14 02:15:00,
2013-08-13 21:20:00,64.5,49.0,29.39,North,0,0.0,0.0,57,0.00,,---,0.00,VWS V13.01,2013-08-14 02:20:00,
2013-08-13 21:25:00,64.2,49.1,29.40,North,0,0.0,0.0,58,0.00,,---,0.00,VWS V13.01,2013-08-14 02:25:00,
2013-08-13 21:30:00,64.2,48.7,29.40,North,0,0.0,0.0,57,0.00,,---,0.00,VWS V13.01,2013-08-14 02:30:00,
2013-08-13 21:35:00,64.0,48.9,29.40,North,0,0.0,0.0,58,0.00,,---,0.00,VWS V13.01,2013-08-14 02:35:00,
2013-08-13 21:40:00,63.6,48.6,29.40,North,0,0.0,0.0,58,0.00,,---,0.00,VWS V13.01,2013-08-14 02:40:00,
2013-08-13 21:45:00,63.5,48.9,29.40,North,0,0.0,0.0,59,0.00,,---,0.00,VWS V13.01,2013-08-14 02:45:00,
2013-08-13 21:50:00,63.3,48.7,29.40,North,0,0.0,0.0,59,0.00,,---,0.00,VWS V13.01,2013-08-14 02:50:00,
2013-08-13 21:55:00,63.1,49.0,29.41,North,0,0.0,0.0,60,0.00,,---,0.00,VWS V13.01,2013-08-14 02:55:00,
2013-08-13 22:00:00,62.9,48.8,29.41,North,0,0.0,0.0,60,0.00,,---,0.00,VWS V13.01,2013-08-14 03:00:00,
2013-08-13 22:05:00,62.7,49.1,29.41,North,0,0.0,0.0,61,0.00,,---,0.00,VWS V13.01,2013-08-14 03:05:00,
2013-08-13 22:10:00,62.6,49.0,29.41,North,0,0.0,0.0,61,0.00,,---,0.00,VWS V13.01,2013-08-14 03:10:00,
2013-08-13 22:15:00,62.4,49.2,29.41,North,0,0.0,0.0,62,0.00,,---,0.00,VWS V13.01,2013-08-14 03:15:00,
2013-08-13 22:20:00,62.2,49.0,29.41,North,0,0.0,0.0,62,0.00,,---,0.00,VWS V13.01,2013-08-14 03:20:00,
2013-08-13 22:25:00,62.2,49.0,29.41,North,0,0.0,0.0,62,0.00,,---,0.00,VWS V13.01,2013-08-14 03:25:00,
2013-08-13 22:30:00,61.8,48.7,29.41,North,0,0.0,0.0,62,0.00,,---,0.00,VWS V13.01,2013-08-14 03:30:00,
2013-08-13 22:35:00,61.7,48.6,29.41,North,0,0.0,0.0,62,0.00,,---,0.00,VWS V13.01,2013-08-14 03:35:00,
2013-08-13 22:40:00,61.5,48.8,29.41,North,0,0.0,0.0,63,0.00,,---,0.00,VWS V13.01,2013-08-14 03:40:00,
2013-08-13 22:45:00,61.5,48.8,29.41,North,0,0.0,0.0,63,0.00,,---,0.00,VWS V13.01,2013-08-14 03:45:00,
2013-08-13 22:50:00,61.1,48.4,29.41,North,0,0.0,0.0,63,0.00,,---,0.00,VWS V13.01,2013-08-14 03:50:00,
2013-08-13 22:55:00,60.9,48.7,29.41,North,0,0.0,0.0,64,0.00,,---,0.00,VWS V13.01,2013-08-14 03:55:00,
2013-08-13 23:00:00,60.6,48.4,29.41,North,0,0.0,0.0,64,0.00,,---,0.00,VWS V13.01,2013-08-14 04:00:00,
2013-08-13 23:01:00,60.6,48.4,29.41,North,0,0.0,0.0,64,0.00,,---,0.00,VWS V13.01,2013-08-14 04:01:00,
2013-08-13 23:02:00,60.6,48.4,29.41,North,0,0.0,0.0,64,0.00,,---,0.00,VWS V13.01,2013-08-14 04:02:00,
2013-08-13 23:03:00,60.6,48.4,29.41,North,0,0.0,0.0,64,0.00,,---,0.00,VWS V13.01,2013-08-14 04:03:00,
2013-08-13 23:04:00,60.6,48.4,29.41,North,0,0.0,0.0,64,0.00,,---,0.00,VWS V13.01,2013-08-14 04:04:00,
2013-08-13 23:09:00,60.2,48.4,29.41,North,0,0.0,0.0,65,0.00,,---,0.00,VWS V13.01,2013-08-14 04:09:00,
2013-08-13 23:10:00,60.2,48.4,29.41,North,0,0.0,0.0,65,0.00,,---,0.00,VWS V13.01,2013-08-14 04:10:00,
2013-08-13 23:15:00,60.0,48.2,29.41,North,0,0.0,0.0,65,0.00,,---,0.00,VWS V13.01,2013-08-14 04:15:00,
2013-08-13 23:20:00,59.9,48.1,29.41,North,0,0.0,0.0,65,0.00,,---,0.00,VWS V13.01,2013-08-14 04:20:00,
2013-08-13 23:25:00,59.7,47.9,29.42,North,0,0.0,0.0,65,0.00,,---,0.00,VWS V13.01,2013-08-14 04:25:00,
2013-08-13 23:30:00,59.7,47.9,29.42,North,0,0.0,0.0,65,0.00,,---,0.00,VWS V13.01,2013-08-14 04:30:00,
2013-08-13 23:35:00,59.5,48.2,29.41,North,0,0.0,0.0,66,0.00,,---,0.00,VWS V13.01,2013-08-14 04:35:00,
2013-08-13 23:40:00,59.5,48.2,29.41,North,0,0.0,0.0,66,0.00,,---,0.00,VWS V13.01,2013-08-14 04:40:00,
2013-08-13 23:45:00,59.3,48.0,29.42,North,0,0.0,0.0,66,0.00,,---,0.00,VWS V13.01,2013-08-14 04:45:00,
2013-08-13 23:50:00,59.1,48.2,29.42,North,0,0.0,0.0,67,0.00,,---,0.00,VWS V13.01,2013-08-14 04:50:00,
2013-08-13 23:55:00,59.0,48.1,29.42,North,0,0.0,0.0,67,0.00,,---,0.00,VWS V13.01,2013-08-14 04:55:00,